User: anonymous   Login
Location: Mason Neck State Park
(38.6428°N, 77.1981°W)
Time: 03:33:59
(UTC-04:00)
Language:

Cosmos 1400 Rocket - Orbit

View from above orbital plane
View from above orbital plane
View from above satellite
View from above satellite

Ground track
Ground track

The orbit data is extracted from the following two-line orbital elements,

1 13403U 82079B   17296.89868057 +.00000083 +00000-0 +39552-5 0  9993
2 13403 081.1667 121.9168 0033231 211.5239 148.3995 15.06690567915880
Epoch (UTC): 23 October 2017 21:34:06
Eccentricity: 0.0033231
inclination: 81.1667°
perigee height: 523 km
apogee height: 569 km
right ascension of ascending node: 121.9168°
argument of perigee: 211.5239°
revolutions per day: 15.06690567
mean anomaly at epoch: 148.3995°
orbit number at epoch: 91588

The dashed part of the orbit path shows where the satellite is in the earth's shadow,  

DLR